Lapse_Rate
6.7 6.7 6.5 6.5 6.5 6.2 6.3 6.2 6.2 6.4 6.4 6.3 6.0 5.9 5.9 6.0 6.1 6.3 6.6 6.9 6.9 6.9 7.0 7.1 7.1 6.9 6.8 6.5 6.4 6.2 6.2 6.2
6.8 6.6 6.5 6.3 6.3 6.3 6.3 6.0 6.1 6.1 6.2 6.3 6.0 5.7 5.9 6.0 6.3 6.5 6.9 6.9 6.8 6.8 6.9 7.0 7.0 6.9 6.8 6.7 6.5 6.4 6.3 6.2
6.6 6.5 6.4 6.5 6.4 6.2 6.1 6.0 5.9 5.8 6.0 6.3 6.0 5.8 5.9 6.2 6.4 6.5 6.7 6.8 6.8 6.8 6.8 6.7 6.7 6.7 6.6 6.5 6.4 6.4 6.4 6.4
6.5 6.5 6.6 6.6 6.5 6.3 6.1 5.9 5.9 5.9 6.0 6.4 6.3 6.1 6.3 6.4 6.6 6.8 6.8 6.7 6.7 6.6 6.6 6.7 6.7 6.6 6.5 6.4 6.4 6.4 6.3 6.3
6.4 6.4 6.5 6.6 6.4 6.2 6.1 5.9 5.8 5.9 5.9 6.2 6.5 6.6 6.7 6.8 6.8 6.7 6.7 6.8 6.7 6.7 6.7 6.8 6.8 6.8 6.6 6.4 6.3 6.4 6.4 6.4
6.3 6.4 6.6 6.6 6.3 6.1 6.0 5.9 5.9 5.9 6.0 6.3 6.6 7.0 7.0 7.0 6.9 6.8 6.7 6.7 6.7 6.8 6.9 6.9 6.8 6.6 6.5 6.4 6.5 6.5 6.4 6.2
6.3 6.4 6.4 6.4 6.3 6.0 5.9 5.9 5.8 5.8 6.1 6.5 6.8 6.8 6.8 6.8 6.7 6.6 6.6 6.6 6.8 6.8 6.9 6.9 6.8 6.7 6.6 6.6 6.5 6.5 6.3 6.3
6.3 6.4 6.4 6.4 6.3 5.9 5.9 5.8 5.6 5.8 6.1 6.3 6.5 6.7 6.7 6.6 6.8 6.7 6.7 6.7 6.8 6.8 6.8 6.7 6.5 6.6 6.3 6.3 6.3 6.3 6.2 6.1
6.3 6.4 6.4 6.4 6.3 5.9 6.0 6.0 6.0 6.1 6.2 6.3 6.4 6.3 6.5 6.6 6.6 6.8 6.8 6.8 6.6 6.6 6.6 6.7 6.5 6.4 6.5 6.4 6.4 6.4 6.3 6.2
6.4 6.4 6.4 6.4 6.3 6.1 6.1 6.3 6.1 6.2 6.2 6.2 6.2 6.4 6.4 6.6 6.7 6.9 6.8 6.7 6.6 6.6 6.6 6.5 6.4 6.4 6.3 6.2 6.3 6.3 6.4 6.4
6.5 6.5 6.5 6.5 6.3 6.2 6.2 6.2 6.1 6.1 6.0 6.1 6.1 6.2 6.4 6.5 6.7 6.8 6.9 6.8 6.7 6.6 6.6 6.4 6.2 6.0 6.1 6.1 6.1 6.1 6.1 6.2
6.5 6.6 6.6 6.6 6.5 6.3 6.3 6.2 6.1 6.0 6.1 5.9 5.9 6.1 6.3 6.3 6.3 6.5 6.7 6.7 6.6 6.4 6.4 6.1 5.9 5.8 5.8 5.8 5.8 5.9 6.0 6.1
6.5 6.6 6.7 6.6 6.5 6.3 6.3 6.2 6.1 6.0 6.0 5.9 5.9 5.9 6.0 6.2 6.2 6.4 6.4 6.5 6.6 6.4 6.2 5.8 5.7 5.6 5.7 5.6 5.7 5.7 5.8 5.9
6.5 6.5 6.6 6.6 6.5 6.5 6.2 6.1 6.1 6.0 5.9 5.8 5.9 5.9 5.9 6.0 6.2 6.3 6.3 6.4 6.4 6.3 5.9 5.8 5.7 5.6 5.6 5.6 5.6 5.7 5.7 5.7
6.6 6.5 6.5 6.6 6.6 6.6 6.4 6.1 6.0 5.9 5.8 5.9 5.9 5.8 5.8 5.8 5.7 6.0 6.1 6.1 6.1 5.9 5.8 5.7 5.6 5.6 5.6 5.5 5.6 5.6 5.6 5.6
6.8 6.4 6.5 6.6 6.5 6.5 6.4 6.1 5.8 5.8 5.7 5.7 5.6 5.5 5.6 5.6 5.6 5.8 5.9 5.8 5.8 5.8 5.6 5.6 5.6 5.5 5.6 5.6 5.5 5.5 5.6 5.7
7.0 6.5 6.6 6.7 6.5 6.4 6.4 6.0 5.8 5.9 5.7 5.4 5.4 5.3 5.5 5.6 5.6 5.7 5.8 5.8 5.6 5.5 5.5 5.6 5.6 5.5 5.3 5.2 5.3 5.5 5.5 5.3
7.2 6.9 6.6 6.7 6.6 6.4 6.3 6.1 5.8 5.8 5.6 5.4 5.4 5.4 5.6 5.8 5.6 5.5 5.6 5.6 5.6 5.7 5.7 5.7 5.5 5.3 5.1 5.4 5.4 5.5 5.5 5.4
7.4 7.0 6.8 6.8 6.6 6.5 6.4 6.3 5.9 5.7 5.6 5.4 5.3 5.4 5.6 5.6 5.5 5.5 5.6 5.6 5.7 5.7 5.6 5.6 5.6 5.6 5.5 5.5 5.4 5.5 5.5 5.5
7.4 7.1 6.9 6.8 6.7 6.5 6.4 6.3 6.1 5.8 5.6 5.4 5.3 5.4 5.5 5.5 5.4 5.5 5.6 5.6 5.6 5.5 5.7 5.7 5.6 5.7 5.6 5.5 5.6 5.6 5.6 5.6
Wind_Speed
13 15 19 19 20 21 19 20 18 18 19 19 19 19 18 18 20 20 20 17 18 20 20 20 21 21 21 21 21 20 20 17
12 14 14 17 18 18 18 18 18 18 17 17 17 18 18 17 18 18 17 18 18 20 21 21 21 21 20 20 20 20 19 18
11 13 14 15 15 14 15 16 16 15 16 16 15 14 14 17 18 17 17 18 18 18 19 20 22 21 20 20 18 17 18 18
10 10 11 11 10 10 11 11 12 11 11 14 14 14 14 13 14 17 16 16 17 17 17 17 15 15 17 17 17 19 18 19
7 10 9 9 9 9 10 11 10 11 10 11 13 12 11 11 9 10 11 12 10 12 13 13 15 15 15 15 17 17 17 18
7 9 10 9 10 9 11 11 11 10 9 9 9 9 10 9 9 9 9 9 10 10 12 14 16 17 16 16 16 15 16 17
7 8 11 10 10 11 11 12 11 12 9 8 9 9 9 9 9 9 9 8 9 10 12 14 15 15 15 16 16 16 15 14
7 8 11 11 10 11 11 12 14 13 9 8 8 8 9 8 10 10 9 7 7 9 11 13 14 15 15 15 16 15 16 14
9 8 11 13 12 12 11 11 14 13 11 9 8 7 9 10 9 9 7 7 8 11 13 14 15 15 15 15 15 15 15 14
10 11 12 13 13 13 12 9 11 13 12 10 8 9 9 10 9 9 7 8 9 10 11 9 8 9 8 12 14 15 14 14
13 11 13 13 14 13 12 11 10 10 10 10 10 8 8 10 10 9 9 9 10 11 10 10 9 9 9 11 12 12 11 12
14 12 13 14 13 12 10 10 9 9 10 9 9 9 9 9 8 8 10 11 10 11 11 12 9 9 10 9 10 11 10 10
15 15 14 11 9 10 7 6 6 7 7 10 10 8 8 9 9 9 9 10 10 13 9 12 9 9 7 7 7 8 9 8
16 17 16 13 10 8 5 7 4 8 7 7 9 9 8 8 9 9 9 10 11 10 10 7 4 2 3 3 4 3 5 5
19 19 18 15 14 9 8 7 6 4 5 6 7 9 8 9 9 10 9 9 6 7 7 7 5 3 1 2 3 2 4 3
19 19 18 15 18 12 15 9 9 6 7 8 9 9 9 8 8 9 10 8 7 6 5 4 4 4 3 2 2 1 3 4
18 18 18 17 16 14 11 10 7 7 7 10 8 9 9 9 8 8 10 9 8 7 6 5 4 4 3 3 2 3 2 2
17 20 19 18 17 16 15 14 11 9 9 9 8 7 9 10 10 9 9 10 9 8 8 7 5 5 3 3 3 2 3 2
18 21 20 19 19 18 17 15 14 14 13 10 11 8 7 10 12 10 8 9 9 9 7 7 6 5 5 4 3 3 3 2
22 22 21 21 20 20 17 16 10 10 12 10 9 9 9 16 13 12 11 10 10 9 8 7 7 5 5 4 4 4 3 3
Wind_Direction
85 95 99 95 91 93 96 94 88 89 90 87 83 78 74 74 77 76 74 73 74 80 85 83 82 80 76 71 68 72 75 69
94 99 108 104 100 89 92 87 88 88 87 84 80 77 74 74 79 79 80 82 81 84 87 87 85 80 76 71 73 73 74 71
101 111 109 110 110 103 98 95 92 90 89 83 79 73 72 73 75 77 81 79 82 89 91 90 87 81 75 72 76 74 74 73
124 123 113 111 109 109 104 100 98 94 94 98 89 80 74 75 72 73 72 74 79 86 92 91 94 95 86 80 82 80 74 73
128 120 115 118 119 118 113 107 105 97 86 89 97 94 88 83 77 69 75 73 87 93 94 94 96 97 93 90 86 82 78 76
135 135 126 125 130 120 117 113 107 97 91 90 92 93 88 89 88 83 78 78 88 98 100 103 101 99 98 92 87 87 86 81
150 142 133 135 127 121 118 117 108 105 98 91 96 97 95 97 93 85 81 82 88 100 112 114 109 102 96 95 88 85 84 82
153 146 139 138 127 124 121 121 117 107 106 98 95 102 108 101 96 88 78 78 88 98 113 117 108 102 91 87 85 81 76 74
155 147 145 139 135 127 126 132 124 118 117 111 107 108 108 104 95 86 82 86 95 100 101 111 107 99 93 89 84 77 73 70
154 159 155 145 141 133 131 136 121 122 126 122 112 106 111 109 104 94 86 88 96 106 114 113 106 102 96 88 85 78 72 68
162 162 157 147 139 133 134 131 118 121 127 123 115 111 107 107 109 106 103 102 106 120 109 115 113 106 99 90 82 79 74 74
166 164 157 148 139 131 129 126 124 131 128 123 125 122 119 112 108 109 104 109 110 113 113 107 110 115 102 87 79 76 74 73
171 167 165 157 155 149 150 147 144 132 135 139 134 131 129 127 118 113 107 113 116 118 120 121 113 121 115 100 88 82 77 75
175 177 171 171 168 167 159 151 155 142 147 145 141 145 141 130 126 115 120 122 127 137 141 133 118 130 136 139 165 145 90 73
181 180 178 177 171 155 135 120 126 145 163 152 157 147 138 136 130 128 123 128 138 141 146 152 147 88 45 301 184 214 157 134
181 181 182 184 175 175 177 177 168 179 171 159 153 154 144 132 135 135 129 122 130 129 149 163 157 157 137 92 56 66 211 174
187 183 187 189 185 185 186 186 177 158 158 157 161 156 148 147 159 146 135 136 125 127 135 144 156 170 173 150 118 94 83 290
189 188 191 193 192 189 196 193 178 166 166 173 170 160 165 172 169 162 147 133 141 146 141 136 118 111 142 167 174 177 160 179
192 192 194 194 195 195 199 202 190 184 179 182 170 172 183 184 172 165 158 154 154 149 135 126 144 157 153 129 124 116 136 133
192 194 195 193 196 200 201 204 201 199 191 186 187 187 183 175 175 170 165 170 166 155 159 160 154 150 146 149 146 142 157 168